Weather History for WAMM - February, 2014

Change the Weather History Date:

Sunday, February 16, 2014

  Actual Average Record
Temperature  
Mean Temperature 78 °F -  
Max Temperature 85 °F - - ()
Min Temperature 70 °F - - ()
Cooling Degree Days 12    
Growing Degree Days 28 (Base 50)    
Moisture  
Dew Point 74 °F    
Average Humidity 82    
Maximum Humidity 99    
Minimum Humidity 61    
Precipitation  
Precipitation 0.02 in - - ()
Sea Level Pressure  
Sea Level Pressure 29.88 in    
Wind  
Wind Speed 3 mph ()    
Max Wind Speed 8 mph    
Max Gust Speed -    
Visibility 6.0 miles    
Events Rain    
T = Trace of Precipitation, MM = Missing Value Source: Averaged Metar Reports

Daily Weather History Graph

Daily Weather History Graph

Search for Another Location

Airport or City:

Trip Planner

Search our weather history database for the weather conditions in past years. The results will help you decide how hot, cold, wet, or windy it might be!

Date:

Astronomy

Feb. 16, 2014 Rise Set
Actual Time 5:52 AM WITA 5:56 PM WITA
Civil Twilight 5:31 AM WITA 6:17 PM WITA
Nautical Twilight 5:06 AM WITA 6:42 PM WITA
Astronomical Twilight 4:42 AM WITA 7:06 PM WITA
Moon 6:49 PM WITA (2/16) 6:27 AM WITA (2/16)
Length of Visible Light 12h 46m
Length of Day
12h 04m
Full, 99% of the Moon is Illuminated
Feb 16
Full
Feb 23
Last Quarter
Mar 1
New
Mar 8
First Quarter
Mar 17
Full

Hourly Weather History & Observations

Time (WITA) Temp. Heat Index Dew Point Humidity Pressure Visibility Wind Dir Wind Speed Gust Speed Precip Events Conditions
2:00 AM 74 °F - 73 °F 96% 29.88 in 4 mi ESE 1.2 mph - - Rain Light Rain
5:00 AM 73 °F - 73 °F 99% 29.87 in 6 mi NE 2.3 mph - -   Partly Cloudy
7:30 AM 75.2 °F - 73.4 °F 94% 29.89 in 5.6 mi SE 1.2 mph - N/A Rain Light Rain
8:00 AM 76 °F - 74 °F 90% 29.91 in 6 mi SSE 2.3 mph - - Rain Light Rain
8:30 AM 75.2 °F - 73.4 °F 94% 29.89 in 5.6 mi ENE 1.2 mph - N/A Rain Light Rain
9:00 AM 78.8 °F - 75.2 °F 89% 29.89 in 5.6 mi South 1.2 mph - N/A   Scattered Clouds
9:30 AM 80.6 °F 85.4 °F 73.4 °F 79% 29.89 in 6.2 mi SSW 2.3 mph - N/A   Scattered Clouds
10:00 AM 80.6 °F 85.4 °F 73.4 °F 79% 29.89 in 6.2 mi NW 2.3 mph - N/A   Scattered Clouds
10:30 AM 82.4 °F 88.2 °F 73.4 °F 74% 29.89 in 6.2 mi North 4.6 mph - N/A   Scattered Clouds
11:00 AM 83 °F - 75 °F 72% 29.89 in 6 mi West 4.6 mph - -   Partly Cloudy
11:00 AM 82.4 °F 89.5 °F 75.2 °F 79% 29.89 in 6.2 mi West 4.6 mph - N/A   Scattered Clouds
11:30 AM 84.2 °F 92.3 °F 75.2 °F 74% 29.86 in 6.2 mi WNW 6.9 mph - N/A   Scattered Clouds
12:00 PM 84.2 °F 90.9 °F 73.4 °F 70% 29.86 in 6.2 mi NNW 8.1 mph - N/A   Scattered Clouds
12:30 PM 86.0 °F 95.1 °F 75.2 °F 70% 29.83 in 6.2 mi WNW 4.6 mph - N/A   Scattered Clouds
1:00 PM 84.2 °F 90.9 °F 73.4 °F 70% 29.83 in 6.2 mi NNW 6.9 mph - N/A   Scattered Clouds
1:30 PM 84.2 °F 92.3 °F 75.2 °F 74% 29.83 in 6.2 mi NNW 5.8 mph - N/A   Scattered Clouds
2:00 PM 85 °F - 73 °F 61% 29.84 in 6 mi NNW 4.6 mph - -   Partly Cloudy
2:00 PM 84.2 °F 90.9 °F 73.4 °F 70% 29.83 in 6.2 mi NNW 4.6 mph - N/A   Scattered Clouds
3:00 PM 82.4 °F 87.2 °F 71.6 °F 70% 29.83 in 6.2 mi North 6.9 mph - N/A   Scattered Clouds
3:30 PM 84.2 °F 89.6 °F 71.6 °F 66% 29.83 in 6.2 mi North 5.8 mph - N/A   Scattered Clouds
4:00 PM 82.4 °F 87.2 °F 71.6 °F 70% 29.83 in 6.2 mi NNW 5.8 mph - N/A   Scattered Clouds
4:30 PM 82.4 °F 88.2 °F 73.4 °F 74% 29.86 in 6.2 mi NNW 4.6 mph - N/A   Scattered Clouds
5:00 PM 81 °F - 73 °F 72% 29.87 in 6 mi NNW 4.6 mph - -   Scattered Clouds
5:00 PM 80.6 °F 85.4 °F 73.4 °F 79% 29.86 in 6.2 mi NNW 4.6 mph - N/A   Scattered Clouds
6:00 PM 78.8 °F - 75.2 °F 89% 29.86 in 6.2 mi WNW 2.3 mph - N/A   Scattered Clouds
6:30 PM 78.8 °F - 75.2 °F 89% 29.89 in 6.2 mi NW 1.2 mph - N/A   Partly Cloudy
7:00 PM 77.0 °F - 75.2 °F 94% 29.89 in 6.2 mi Calm Calm - N/A   Partly Cloudy
7:30 PM 77.0 °F - 75.2 °F 94% 29.92 in 6.2 mi ENE 2.3 mph - N/A   Partly Cloudy
8:00 PM 76 °F - 75 °F 94% 29.93 in 6 mi NE 3.5 mph - -   Scattered Clouds
8:00 PM 77.0 °F - 75.2 °F 94% 29.92 in 6.2 mi NE 3.5 mph - N/A   Scattered Clouds
8:30 PM 75.2 °F - 73.4 °F 94% 29.92 in 6.2 mi East 1.2 mph - N/A   Scattered Clouds
10:30 PM 75.2 °F - 73.4 °F 94% 29.92 in 6.2 mi Calm Calm - N/A   Scattered Clouds
11:00 PM 75 °F - 73 °F 92% 29.95 in 6 mi SSE 2.3 mph - -   Scattered Clouds
11:30 PM 75.2 °F - 71.6 °F 89% 29.95 in 6.2 mi SE 2.3 mph - N/A   Partly Cloudy